This is the latest recevied weather packets stored in our database for station/object KB3AWQ. If no packets are shown the sender has not sent any weather packets the latest 10 day(s).
| Time | Temp. | Humidity | Pressure | Rain* | Wind** | Luminosity | Snow |
|---|---|---|---|---|---|---|---|
| 1777036170 | 12.78° C | 72% | 1012.3 hPa | 0 mm | - | 83 W/m² | - |
| 1777035866 | 12.78° C | 72% | 1012.6 hPa | 0 mm | - | 50 W/m² | - |
| 1777035566 | 12.22° C | 73% | 1012.3 hPa | 0 mm | - | 110 W/m² | - |
| 1777035267 | 12.22° C | 73% | 1012.2 hPa | 0 mm | - | 107 W/m² | - |
| 1777034968 | 11.67° C | 74% | 1012.2 hPa | 0 mm | - | 225 W/m² | - |
| 1777034667 | 11.67° C | 75% | 1012.3 hPa | 0 mm | - | 108 W/m² | - |
| 1777034366 | 11.67° C | 74% | 1012.3 hPa | 0 mm | - | 136 W/m² | - |
| 1777033782 | 11.11° C | 73% | 1012.2 hPa | 0 mm | - | 97 W/m² | - |
| 1777033467 | 11.11° C | 73% | 1012.3 hPa | 0 mm | - | 81 W/m² | - |
| 1777033167 | 11.11° C | 73% | 1012.2 hPa | 0 mm | - | 83 W/m² | - |
| 1777032867 | 11.11° C | 73% | 1012.1 hPa | 0 mm | - | 84 W/m² | - |
| 1777032566 | 11.11° C | 73% | 1012.1 hPa | 0 mm | - | 110 W/m² | - |
| 1777032267 | 11.11° C | 72% | 1012.1 hPa | 0 mm | - | 93 W/m² | - |
| 1777031971 | 11.67° C | 72% | 1012.1 hPa | 0 mm | - | 69 W/m² | - |
| 1777031667 | 11.67° C | 71% | 1012 hPa | 0 mm | - | 101 W/m² | - |
| 1777031367 | 11.67° C | 70% | 1012 hPa | 0 mm | - | 124 W/m² | - |
| 1777031066 | 11.11° C | 72% | 1012 hPa | 0 mm | - | 148 W/m² | - |
| 1777030768 | 11.11° C | 74% | 1011.8 hPa | 0 mm | - | 136 W/m² | - |
| 1777030467 | 11.11° C | 74% | 1011.7 hPa | 0 mm | - | 78 W/m² | - |
| 1777030167 | 10.56° C | 74% | 1011.8 hPa | 0 mm | - | 108 W/m² | - |
| 1777029866 | 10.56° C | 75% | 1011.7 hPa | 0 mm | - | 97 W/m² | - |
| 1777029566 | 10° C | 77% | 1011.6 hPa | 0 mm | - | 87 W/m² | - |
| 1777029267 | 9.44° C | 78% | 1011.6 hPa | 0 mm | - | 78 W/m² | - |
| 1777028967 | 9.44° C | 79% | 1011.7 hPa | 0 mm | - | 70 W/m² | - |
| 1777028667 | 9.44° C | 79% | 1011.7 hPa | 0 mm | - | 48 W/m² | - |
* Rain latest hour (hover to see other rain measurements)
** Current wind speed in m/s (hover to see current wind gust speed)